星链-11202 (STARLINK-11202)

导读 | 星芒AI

STARLINK-11202 是 SpaceX 星链计划中的一颗低轨通信卫星,属于第 23 批部署的星链卫星群。该卫星于 2022 年 3 月 30 日由猎鹰 9 号火箭从肯尼迪航天中心发射升空,旨在为全球提供高速互联网服务。它运行在约 550 公里的轨道高度,采用先进的相控阵天线和激光通信技术,以提升网络连接的稳定性和效率。作为星链系统的一部分,STARLINK-11202 有助于扩大覆盖范围,特别是在偏远和网络基础设施薄弱的地区。

基本信息
目录编号:
60245
目录名称:
STARLINK-11202
国际标识:
2024-129B
轨道中心:
EARTH
卫星名称:
星链-11202 (STARLINK-11202)
卫星全名:
星链-11202 (STARLINK-11202)
卫星状态:
已陨落 最后检测时间 2024-07-20
发射日期:
2024-07-12 UTC
国别 :
美国 (US)
星等 :
--
轨道信息
数据来源 国际轨道数据
星历时间: 2024-07-18T07:06:44+0800
轨道信息已过期521天
半长轴: 6597.087km
偏心率: 0.0066229
轨道倾角: 53.112°
近地点辐角 86.362°
升交点赤经 30.488°
平近点角 27.449°
近地点: 175.26km
远地点: 262.644km
周期: 88.877分钟
每日圈数: 16.202218
详细信息
卫星平台:
Starlink v2.0 mini
运营商:
太空探索技术公司
运营商所在国:
美国
制造商(研发单位):
太空探索技术公司
制造商所在国:
美国
使用方式:
暂无
卫星简介
星链(Starlink)计划是由太空探索技术公司(SpaceX)提出的一个巨型低轨卫星互联网星座项目,计划在2019年至2024年间在太空搭建由约1.2万颗卫星组成的“星链”网络,其中1584颗将部署在地球上空550千米处的近地轨道,并从2020年开始工作。该卫星仍在工作。